Location: Be?chatów
(51.3665°N, 19.3745°E)
Time: 07:49:19
(UTC+00:00)

Cosmos 1727 Rocket - Pass Details

Date: 19 May 2025
Orbit: 960 x 996 km, 82.9° (Epoch: 17 June)

Event Time Altitude Azimuth Distance (km) Brightness Sun altitude
Exits shadow 22:34:10 30° 164° (SSE) 1,674 4.7 -18.6°
Maximum altitude 22:37:18 64° 94° (E) 1,077 4.2 -18.7°
Drops below altitude 10° 22:43:26 10° 15° (NNE) 2,719 7.5 -18.6°
Sets 22:45:57 0° 12° (NNE) 3,666 8.6 -18.6°
